STARLINK-11477, 62471

Orbit data source: Space-Track

STARLINK-11477, 62471 is a payload satellite owned by SpaceX/Seattle (US) in LEO that was launched on Tue, 31 Dec 2024 UTC via an FALCON 9 launch vehicle from the Air Force Eastern Test Range (AFETR). Payloads include a variety of satellites, spacecraft, and rockets equipped with specific instruments for various scientific and technological missions. These include communications satellites like Starlink; space stations such as the ISS; scientific satellites like the Hubble; Earth observation satellites from companies like Planet Labs, Umbra, and HawkEye 360; GPS; miniature CubeSats for education and research; and military/defense satellites.

Loading next visibility...
STARLINK-11477 details
Identifier
62471, 2024-254K
Orbit
LEO
Last TLE update8 hours ago
Origin
Flag of USSpaceX/Seattle (US)
ManufacturerSpaceX/Seattle
MissionOperational spacecraft
Bus & MotorSTARLINK V2M, Unknown motor
Mass730 kg wet, ~700 kg dry
Launch date (UTC)
2024-12-31 (4 weeks ago)
Launch vehicle
FALCON 9
Launch site
Air Force Eastern Test Range (AFETR)
Object type
Payload
Rocket body
Debris
Shape & HBRUnknown
Radar Cross SectionLarge (>1 m²)

Expand to show TLE details & history

TLE from 8 hours ago
0 STARLINK-11477
1 62471U 24254K   25025.50179423 -.00219341  00000-0 -97463-3 0  9996
2 62471  42.9923 165.2104 0006907 299.3637  60.6545 15.83852192  5174
Epoch: 2025-01-25T12:02Z
Definitive object data (Epoch: 2025-01-25T12:02:35.021Z)
Latitude-0.00003°
Longitude-140.48525°
Altitude317.063 km
Speed7.721 km/s
True Right ascension11h 00m 50s
True Declination0° 00' 00"
Sunlit
Object was in full shadow at TLE epoch
Visualization TLE readout
Latitude-5.21523°
Longitude42.96107°
Altitude322.515 km
Speed7.715 km/s
Apparent Right ascension01h 58m 47s
Apparent Declination-58° 42' 23"
Sunlit
Object is in daylight
Visualization observer readout
Local Sidereal Time21:45:03
Azimuth149.993° SSE
Elevation-21.725°
Doppler factor1
Orbital elements
Apogee altitude326.18 km
Perigee altitude316.925 km
Semi-major axis6,699.689 km
Eccentricity0.0006907
Inclination42.9923°
RAAN165.2104°
Arg. of periapsis299.3637°
True anomaly60.72352°
Mean anomaly60.6545°
Eccentric anomaly60.68901°
Mean motion3.95787 °/min
BSTAR-0.00097463
Orbital period90.96 mins
Loading maneuver chart data...
Loading historical data...
Loading historical data...
Loading historical data...
Loading historical data...
Loading historical data...
Loading historical data...
Loading historical data...

STARLINK-11477 Visibility forecast

Observer location: undefined°, undefined

Span
Click to sort rows by Start time (UTC) header in descending order
Start Az.
Max El. time (UTC)
Max El. Az.
Max El.
End time (UTC)
End Az.
4 mins2025-01-26 12:28:57.080Z213.595° SW2025-01-26 12:30:57.080Z147.7° SSE28.685°2025-01-26 12:32:57.080Z89.299° E
|